Location: Coffee Ditch
(40.9640°N, 122.7500°W)
Time: 15:20:48
(UTC+00:00)

Cosmos 2360 Rocket - Pass Details

Date: 08 September 2024
Orbit: 835 x 842 km, 71.0° (Epoch: 08 October)

Event Time Altitude Azimuth Distance (km) Brightness Sun altitude
Rises 12:25:46 0° 336° (NNW) 3,392 5.3 -15.3°
Reaches altitude 10° 12:28:13 10° 338° (NNW) 2,454 4.6 -14.9°
Maximum altitude 12:33:51 84° 66° (ENE) 845 2.2 -13.9°
Drops below altitude 10° 12:39:28 10° 155° (SSE) 2,438 4.7 -12.9°
Sets 12:41:53 0° 156° (SSE) 3,368 5.4 -12.5°
